Location: Frankfurt am Main
(50.1109°N, 8.6821°E)
Time: 06:54:52
(UTC+01:00)

ISS - Pass Details

Date: 02 November 2021
Orbit: 417 x 422 km, 51.6° (Epoch: 04 December)

Event Time Altitude Azimuth Distance (km) Brightness Sun altitude
Exits shadow 05:29:45 49° 305° (NW) 547 -3.6 -17.5°
Maximum altitude 05:30:28 68° 5° (N) 456 -3.7 -17.4°
Drops below altitude 10° 05:33:49 10° 90° (E) 1,499 0.4 -16.9°
Sets 05:35:55 0° 93° (E) 2,361 1.9 -16.6°
